Printer-friendly version

IAU Minor Planet Center

Minor Planet Center

MPEC 2007-O35 : 2007 GD49

The following Minor Planet Electronic Circular may be linked-to from your own Web pages, but must not otherwise be redistributed electronically.


Read MPEC 2007-O34 Read MPEC 2007-O36


M.P.E.C. 2007-O35                                Issued 2007 July 21, 23:36 UT

     The Minor Planet Electronic Circulars contain information on unusual
         minor planets and routine data on comets.  They are published
   on behalf of Commission 20 of the International Astronomical Union by the
          Minor Planet Center, Smithsonian Astrophysical Observatory,
                          Cambridge, MA 02138, U.S.A.

             Prepared using the Tamkin Foundation Computer Network

                              MPC@CFA.HARVARD.EDU
          URL http://www.cfa.harvard.edu/iau/mpc.html  ISSN 1523-6714

                                   2007 GD49

Additional Observations:
     K07G49D  C2003 04 26.47501 15 31 21.85 -21 36 25.8          19.6 R EO035608
     K07G49D  C2003 04 26.48574 15 31 20.94 -21 36 31.7          20.0 R EO035608
     K07G49D  C2003 04 26.49692 15 31 20.02 -21 36 37.0          19.8 R EO035608
     K07G49D  C2003 05 13.42627 15 03 46.99 -24 03 01.5          19.5 R EO035608
     K07G49D  C2003 05 13.43676 15 03 45.73 -24 03 06.6          18.9 R EO035608
     K07G49D  C2003 05 13.44792 15 03 44.47 -24 03 12.5          18.7 R EO035608

Observer details:
608 Haleakala-NEAT/MSSS.  Observers R. Bambery, E. Helin, S. Pravdo, M. Hicks,
    K. Lawrence, P. Kervin.  Measurer R. Matson.  1.2-m reflector + CCD.

Orbital elements:
2007 GD49                                                Earth MOID = 0.4594 AU
Epoch 2007 Apr. 10.0 TT = JDT 2454200.5                 MPC
M 297.18315              (2000.0)            P               Q
n   0.24332675     Peri.  296.44669     +0.85850599     +0.36217930
a   2.5410282      Node    45.03899     -0.02639191     +0.73820720
e   0.4966816      Incl.   30.86777     -0.51212394     +0.56910129
P   4.05           H   16.8           G   0.15           U   3
Residuals in seconds of arc
030426 608  0.1-  0.1-    070419 691  0.0   0.0     070511 104  0.1+  0.6-
030426 608  0.3-  0.3-    070419 691  0.1+  0.1-    070511 104  0.9+  0.1-
030426 608  0.1-  0.4+    070419 691  0.0   0.0     070511 104  0.2+  0.3+
030513 608  0.5+  0.2-    070419 691  0.1+  0.1-    070511 104  0.2+  0.1-
030513 608  0.5-  0.1-    070511 G96  0.3+  0.2+    070523 448  0.8-  0.3-
030513 608  0.4-  0.6-    070511 G96  0.1+  0.0     070523 448  0.0   0.6-
070414 691  0.0   0.2-    070511 G96  0.2+  0.2-    070523 448  0.1-  0.9-
070414 691  0.2-  0.3-    070511 G96  0.1-  0.1-    070609 H36  0.1-  1.1+
070414 691  0.4-  0.3+    070511 176  0.9+  1.2+    070609 H36  0.3+  0.1+
070418 691  0.1+  0.2-    070511 176  0.7+  0.6+    070720 474  0.0   0.1-
070418 691  0.1-  0.1+    070511 J87  0.2+  1.5+    070720 474  0.0   0.2-
070418 691  0.1+  0.0     070511 J87  0.4-  0.3+    070720 474  0.4-  0.5-
070419 691  0.2-  0.1-    070511 176  0.7+  0.4+    070720 474  0.0   0.3-
070419 691  0.0   0.1-    070511 J87  0.6+  0.6+

Ephemeris:
2007 GD49                a,e,i = 2.54, 0.50, 31                  q = 1.2789
Date    TT    R. A. (2000) Decl.     Delta      r     Elong.  Phase     V
2007 07 19    13 42.75   -25 37.4    1.590    1.989    97.0    30.5    20.6
2007 07 29    13 47.39   -27 10.7    1.651    1.928    89.3    31.8    20.7
2007 08 08    13 55.32   -28 54.7    1.706    1.866    82.4    32.6    20.7
2007 08 18    14 06.38   -30 48.5    1.755    1.805    76.2    33.0    20.7
2007 08 28    14 20.51   -32 50.9    1.796    1.744    70.6    33.1    20.7
2007 09 07    14 37.74   -34 59.6    1.827    1.684    65.7    33.1    20.6
2007 09 17    14 58.30   -37 11.8    1.848    1.625    61.3    32.9    20.6

Gareth V. Williams           (C) Copyright 2007 MPC           M.P.E.C. 2007-O35

Read MPEC 2007-O34 Read MPEC 2007-O36


Our Web policy. Index to the CBAT/MPC/ICQ pages.


Valid HTML 4.01!